User: anonymous   Login
Location: Riverside Cemetery
(38.3047°N, 99.7773°W)
Time: 18:56:21
(UTC+00:00)
Language:

Sich 1 Rocket - Orbit

View from above orbital plane
View from above orbital plane
View from above satellite
View from above satellite

Ground track
Ground track

The orbit data is extracted from the following two-line orbital elements,

1 23659U 95046C   20331.46606895  .00000082  00000-0  80237-5 0  9997
2 23659  82.5323 217.8472 0027161  78.4703  94.2620 14.78352992360447
Epoch (UTC): 26 November 2020 11:11:08
Eccentricity: 0.0027161
inclination: 82.5323°
perigee height: 615 km
apogee height: 653 km
right ascension of ascending node: 217.8472°
argument of perigee: 78.4703°
revolutions per day: 14.78352992
mean anomaly at epoch: 94.2620°
orbit number at epoch: 36044

The dashed part of the orbit path shows where the satellite is in the earth's shadow,  

DLR